Back to catalog

STARLINK-31603

AliveCommunicationsVLEO
NORAD 59201·PAYLOAD·🇺🇸 United States

Launched Mar 11, 2024 from Vandenberg Space Force Base

Loading…

Next Passes (next 24 hours)

TLE

FreshSource: CelesTrak SupGP

Epoch: Sep 14, 2026, 21:30 UTC

1 59201C 24046A   26257.89631944 -.00008038  00000+0 -23757-3 0  2573
2 59201  53.1595 355.7259 0001229  73.6468 115.2250 15.34384646    12

Track STARLINK-31603 in real time with AllMySat

Download on the App Store